Find OneWeb SL0130

NORAD ID: 47272 Int'l Des: 2020-100 Owner: ONEWEB Country: UK Constellation: oneweb operational
LEOCIRCULARPOLARONEWEB_TYPE

实时位置

正在加载3D地球...

关于 OneWeb SL0130

正在加载描述...

即将过境

Passes for default location (London). Set your location on the main map for personalized predictions.

高度历史

Loading altitude history...

两行轨道根数

1 47272U 20100Q 26126.34089144 -.00000016 00000-0 -78717-4 0 9998
2 47272 87.8977 358.9910 0001671 82.8302 277.3017 13.12440884259214
Epoch: May 6, 2026 • Age: 16 hours

当前状态

高度 1241.6 km
速度 7.23 km/s
星下点 -72.26°S, 123.23°E
发射日期 Dec 18, 2020
运行时间 5.3 years
类型 internet

技术详情

分类 Payload
质量 148.00 kg
干质量 140.00 kg
总质量 148.00 kg
长度 1.30 m
直径 1.00 m
跨度 5.00 m
形状 Trapezoid+2 pan
制造商 ONEWUS
平台类型 ARROW
阶段状态 In Orbit
所有者/国家 ONEWEB/UK

Most Searched